Regional Weather Roundup
Issued by NWS

Home | Current Version | Previous Version | Graphics & Text | Print | Product List | Glossary Off
Versions: 1 2 3 4 5 6 7 8 9 10 11 12 13 14 15 16 17 18 19 20 21 22 23 24 25 26 27 28 29 30 31 32 33 34 35 36 37 38 39 40 41 42 43 44 45 46 47 48 49 50

000
ASUS43 KLSX 252307
RWRMO

WEATHER SUMMARY FOR MISSOURI
NATIONAL WEATHER SERVICE SPRINGFIELD MO
500 PM CST SUN JAN 25 2015

NOTE: "FAIR" INDICATES FEW OR NO CLOUDS BELOW 12,000 FEET WITH NO
       SIGNIFICANT WEATHER AND/OR OBSTRUCTIONS TO VISIBILITY.
       CURRENT SKY AND/OR WEATHER CONDITIONS ARE NOT AVAILABLE FOR
       CHILLICOTHE AND FARMINGTON.

MOZ001>031-035>038-043-044-053-054-260000-
...NORTHERN AND WESTERN MISSOURI...

CITY           SKY/WX    TMP DP  RH WIND       PRES   REMARKS
KANSAS CTY INT CLOUDY    38  32  79 N20G28    30.02R WCI  28
KANSAS C DTWN  CLOUDY    40  32  73 N14G21    30.01R
LEE`S SUMMIT   CLOUDY    38  32  79 N18       30.00R WCI  28
ST JOSEPH      CLOUDY    38  31  76 N16       30.05R WCI  29
CHILLICOTHE      N/A     35  29  78 N9        30.01R WCI  28
KIRKSVILLE     CLOUDY    31  28  89 N13G25    29.97R WCI  21

$$
MOZ066>068-077>081-088>096-101>105-260000-
...SOUTHWEST MISSOURI...

CITY           SKY/WX    TMP DP  RH WIND       PRES   REMARKS
SPRINGFIELD    LGT RAIN  38  35  89 NW18G26   29.90R WCI  28
JOPLIN         CLOUDY    41  32  70 NW24G31   29.99R

$$
MOZ032>034-039>042-045>050-055>058-069>072-260000-
...CENTRAL MISSOURI...

CITY           SKY/WX    TMP DP  RH WIND       PRES   REMARKS
COLUMBIA       CLOUDY    34  32  92 N23G30    29.89R WCI  22
JEFFERSON CITY CLOUDY    36  32  85 N16       29.90R WCI  26
ROLLA          MIX PCPN  36  34  92 NW17G28   29.80R WCI  26
SEDALIA        CLOUDY    36  31  82 N21G26    29.96R WCI  25
WHITEMAN AFB   CLOUDY    36  32  85 N15G25    29.96R WCI  26
WARRENSBURG    CLOUDY    36  32  87 NW15G24   29.97R WCI  26
OSAGE BEACH    CLOUDY    36  32  87 N9G21     29.89R WCI  29

$$
MOZ051-052-059>065-260000-
...EAST CENTRAL MISSOURI...

CITY           SKY/WX    TMP DP  RH WIND       PRES   REMARKS
ST LOUIS INTL  LGT RAIN  38  34  85 N14G23    29.77R WCI  30
SPIRIT OF STL  MIX PCPN  37  34  89 N14G23    29.79R WCI  28
ST CHARLES     CLOUDY    36  34  92 N18G28    29.79R WCI  26

$$
MOZ072>076-082>087-097>100-106>115-260000-
...SOUTH CENTRAL AND SOUTHEAST MISSOURI...

CITY           SKY/WX    TMP DP  RH WIND       PRES   REMARKS
CAPE GIRARDEAU LGT RAIN  46  42  86 NW10      29.69R
FARMINGTON     CLOUDY    41  37  87 MISG      29.74R
POPLAR BLUFF   CLOUDY    46  38  73 NW15G23   29.72R
WEST PLAINS    CLOUDY    38  33  82 NW13G25   29.81R WCI  30

$$



USA.gov is the U.S. government's official web portal to all federal, state and local government web resources and services.